Weather History for Ogden, UT

Change the Weather History Date:

Tuesday, September 24, 2013

  Actual Average Record
Temperature  
Mean Temperature 64 °F -  
Max Temperature 80 °F 76 °F 91 °F (1992)
Min Temperature 50 °F 45 °F 29 °F (1945)
Growing Degree Days 14 (Base 50)    
Moisture  
Dew Point 31 °F    
Average Humidity 32    
Maximum Humidity 52    
Minimum Humidity 14    
Precipitation  
Precipitation 0.00 in - - ()
Sea Level Pressure  
Sea Level Pressure 29.78 in    
Wind  
Wind Speed 11 mph (South)    
Max Wind Speed 30 mph    
Max Gust Speed 39 mph    
Visibility 10 miles    
Events      
Averages and records for this station are not official NWS values.
T = Trace of Precipitation, MM = Missing Value Source: NWS Daily Summary

Daily Weather History Graph

Daily Weather History Graph

Search for Another Location

Airport:

Trip Planner

Search our weather history database for the weather conditions in past years. The results will help you decide how hot, cold, wet, or windy it might be!

Date:

Astronomy

Sep. 24, 2013 Rise Set
Actual Time 7:17 AM MDT 7:21 PM MDT
Civil Twilight 6:50 AM MDT 7:48 PM MDT
Nautical Twilight 6:18 AM MDT 8:20 PM MDT
Astronomical Twilight 5:45 AM MDT 8:53 PM MDT
Moon 10:38 PM MDT 12:38 PM MDT
Length of Visible Light 12h 58m
Length of Day
12h 03m
Waning Gibbous, 72% of the Moon is Illuminated
Sep 24
Waning Gibbous
Sep 26
Last Quarter
Oct 4
New
Oct 11
First Quarter
Oct 18
Full

Hourly Weather History & Observations

Time (MDT) Temp. Dew Point Humidity Pressure Visibility Wind Dir Wind Speed Gust Speed Precip Events Conditions
12:53 AM 53.1 °F 34.0 °F 48% 29.97 in 10.0 mi SSE 9.2 mph - N/A   Clear
1:53 AM 53.1 °F 34.0 °F 48% 29.96 in 10.0 mi South 11.5 mph - N/A   Clear
2:53 AM 53.1 °F 33.1 °F 47% 29.96 in 10.0 mi SSE 8.1 mph - N/A   Clear
3:53 AM 51.1 °F 33.1 °F 50% 29.95 in 10.0 mi South 8.1 mph - N/A   Clear
4:53 AM 51.1 °F 33.1 °F 50% 29.94 in 10.0 mi South 6.9 mph - N/A   Clear
5:53 AM 50.0 °F 33.1 °F 52% 29.93 in 10.0 mi South 6.9 mph - N/A   Clear
6:53 AM 50.0 °F 32.0 °F 50% 29.93 in 10.0 mi South 10.4 mph - N/A   Clear
7:53 AM 50.0 °F 32.0 °F 50% 29.94 in 10.0 mi South 8.1 mph - N/A   Clear
8:53 AM 55.0 °F 33.1 °F 43% 29.93 in 10.0 mi SSE 9.2 mph - N/A   Clear
9:53 AM 61.0 °F 34.0 °F 36% 29.91 in 10.0 mi SSE 9.2 mph - N/A   Clear
10:53 AM 66.0 °F 33.1 °F 29% 29.88 in 10.0 mi SSE 4.6 mph - N/A   Clear
11:53 AM 73.9 °F 32.0 °F 21% 29.81 in 10.0 mi South 19.6 mph 25.3 mph N/A   Clear
12:53 PM 75.9 °F 28.9 °F 18% 29.77 in 10.0 mi South 29.9 mph 38.0 mph N/A   Clear
1:53 PM 79.0 °F 28.0 °F 15% 29.73 in 10.0 mi South 26.5 mph 39.1 mph N/A   Clear
2:53 PM 79.0 °F 25.0 °F 14% 29.68 in 10.0 mi South 25.3 mph 34.5 mph N/A   Clear
3:53 PM 78.1 °F 24.1 °F 14% 29.66 in 10.0 mi South 23.0 mph 27.6 mph N/A   Clear
4:53 PM 77.0 °F 24.1 °F 14% 29.64 in 10.0 mi South 10.4 mph - N/A   Clear
5:53 PM 75.0 °F 30.0 °F 19% 29.62 in 10.0 mi Calm Calm - N/A   Clear
6:53 PM 75.9 °F 28.0 °F 17% 29.57 in 10.0 mi SSE 5.8 mph - N/A   Clear
7:53 PM 72.0 °F 27.0 °F 19% 29.58 in 10.0 mi SW 4.6 mph - N/A   Clear
8:53 PM 73.0 °F 26.1 °F 17% 29.55 in 10.0 mi South 8.1 mph - N/A   Clear
9:53 PM 70.0 °F 30.9 °F 24% 29.55 in 10.0 mi Calm Calm - N/A   Clear
10:53 PM 64.0 °F 35.1 °F 34% 29.57 in 10.0 mi NW 15.0 mph 27.6 mph N/A   Clear
11:53 PM 61.0 °F 36.0 °F 39% 29.57 in 10.0 mi WSW 5.8 mph - N/A   Scattered Clouds